User: anonymous   Login
Location: Natural Bridges National Monument
(37.6093°N, 109.9767°W)
Time: 18:22:07
(UTC-06:00)
Language:

Cosmos 1727 Rocket - Orbit

View from above orbital plane
View from above orbital plane
View from above satellite
View from above satellite

Ground track
Ground track

The orbit data is extracted from the following two-line orbital elements,

1 16511U 86008B   16178.48479758 -.00000002  00000-0 -18248-4 0  9992
2 16511  82.9452 123.7146 0023685 193.2535 304.5426 13.75804619527363
Epoch (UTC): 26 June 2016 11:38:06
Eccentricity: 0.0023685
inclination: 82.9452°
perigee height: 961 km
apogee height: 996 km
right ascension of ascending node: 123.7146°
argument of perigee: 193.2535°
revolutions per day: 13.75804619
mean anomaly at epoch: 304.5426°
orbit number at epoch: 52736

The dashed part of the orbit path shows where the satellite is in the earth's shadow,  

DLR